Weather History for Hebbronville, TX

Change the Weather History Date:

Tuesday, October 29, 2013

  Actual Average (KLRD) Record (KLRD)
Temperature  
Mean Temperature 82 °F 72 °F  
Max Temperature 90 °F 83 °F 97 °F (1902)
Min Temperature 74 °F 62 °F 32 °F (1908)
Degree Days  
Heating Degree Days 0 1  
Month to date heating degree days 6  
Since 1 July heating degree days 7  
Cooling Degree Days 17 8  
Month to date cooling degree days 329  
Year to date cooling degree days 4114  
Growing Degree Days 32 (Base 50)    
Moisture  
Dew Point 65 °F    
Average Humidity 63    
Maximum Humidity 81    
Minimum Humidity 30    
Precipitation  
Precipitation 0.00 in 0.05 in 2.00 in (1975)
Month to date precipitation 2.12  
Year to date precipitation 18.04  
Sea Level Pressure  
Sea Level Pressure 30.00 in    
Wind  
Wind Speed 14 mph (SE)    
Max Wind Speed 20 mph    
Max Gust Speed 28 mph    
Visibility 10 miles    
Events      
T = Trace of Precipitation, MM = Missing Value Source: NWS Daily Summary

Daily Weather History Graph

Daily Weather History Graph

Search for Another Location

Airport:

Trip Planner

Search our weather history database for the weather conditions in past years. The results will help you decide how hot, cold, wet, or windy it might be!

Date:

Astronomy

Oct. 29, 2013 Rise Set
Actual Time 7:43 AM CDT 6:53 PM CDT
Civil Twilight 7:19 AM CDT 7:17 PM CDT
Nautical Twilight 6:52 AM CDT 7:44 PM CDT
Astronomical Twilight 6:24 AM CDT 8:12 PM CDT
Moon 3:01 AM CDT (10/29) 3:44 PM CDT (10/29)
Length of Visible Light 11h 57m
Length of Day
11h 09m
Waning Crescent, 25% of the Moon is Illuminated
Oct 29
Waning Crescent
Nov 3
New
Nov 9
First Quarter
Nov 17
Full
Nov 25
Last Quarter

Hourly Weather History & Observations

Time (CDT) Temp. Heat Index Dew Point Humidity Pressure Visibility Wind Dir Wind Speed Gust Speed Precip Events Conditions
12:15 AM 75.6 °F - 67.6 °F 76% 30.03 in 10.0 mi SE 13.8 mph 20.7 mph N/A   Overcast
12:35 AM 75.4 °F - 67.6 °F 77% 30.03 in 10.0 mi SE 15.0 mph 19.6 mph N/A   Overcast
12:55 AM 75.4 °F - 67.8 °F 77% 30.03 in 10.0 mi SE 12.7 mph 24.2 mph N/A   Overcast
1:15 AM 75.2 °F - 67.6 °F 77% 30.03 in 10.0 mi SE 13.8 mph - N/A   Overcast
1:35 AM 74.8 °F - 67.8 °F 79% 30.03 in 10.0 mi SE 13.8 mph 20.7 mph N/A   Overcast
1:55 AM 74.7 °F - 68.0 °F 80% 30.03 in 10.0 mi SE 10.4 mph 19.6 mph N/A   Overcast
2:15 AM 74.3 °F - 68.0 °F 81% 30.03 in 10.0 mi SE 11.5 mph - N/A   Overcast
2:35 AM 74.3 °F - 68.0 °F 81% 30.02 in 10.0 mi SE 13.8 mph 19.6 mph N/A   Mostly Cloudy
2:55 AM 74.5 °F - 68.0 °F 80% 30.02 in 10.0 mi SE 15.0 mph 20.7 mph N/A   Scattered Clouds
3:15 AM 74.8 °F - 68.0 °F 79% 30.02 in 10.0 mi SE 15.0 mph 18.4 mph N/A   Mostly Cloudy
3:35 AM 75.2 °F - 68.2 °F 79% 30.01 in 10.0 mi SE 15.0 mph 20.7 mph N/A   Overcast
3:55 AM 75.2 °F - 68.2 °F 79% 30.01 in 10.0 mi SE 12.7 mph 19.6 mph N/A   Overcast
4:15 AM 75.2 °F - 68.2 °F 79% 30.01 in 10.0 mi SE 12.7 mph 20.7 mph N/A   Overcast
4:35 AM 75.2 °F - 68.4 °F 79% 30.01 in 10.0 mi SE 16.1 mph 23.0 mph N/A   Overcast
4:55 AM 75.0 °F - 68.2 °F 79% 30.02 in 10.0 mi SE 13.8 mph 21.9 mph N/A   Overcast
5:35 AM 75.2 °F - 68.4 °F 79% 30.02 in 10.0 mi SE 12.7 mph 19.6 mph N/A   Overcast
5:55 AM 75.2 °F - 68.4 °F 79% 30.02 in 10.0 mi SE 11.5 mph 19.6 mph N/A   Overcast
6:15 AM 75.2 °F - 68.2 °F 79% 30.02 in 10.0 mi SE 11.5 mph 17.3 mph N/A   Overcast
6:35 AM 75.2 °F - 68.2 °F 79% 30.03 in 10.0 mi SE 10.4 mph 18.4 mph N/A   Overcast
6:55 AM 75.2 °F - 68.0 °F 78% 30.03 in 10.0 mi SE 12.7 mph - N/A   Overcast
7:15 AM 74.8 °F - 68.0 °F 79% 30.03 in 10.0 mi SE 12.7 mph 18.4 mph N/A   Overcast
7:35 AM 74.7 °F - 68.2 °F 80% 30.03 in 10.0 mi SE 10.4 mph 18.4 mph N/A   Overcast
7:55 AM 74.7 °F - 68.2 °F 80% 30.04 in 10.0 mi SE 10.4 mph 18.4 mph N/A   Overcast
8:15 AM 74.7 °F - 68.0 °F 80% 30.04 in 10.0 mi SE 12.7 mph 16.1 mph N/A   Overcast
8:35 AM 74.7 °F - 68.2 °F 80% 30.05 in 10.0 mi SE 9.2 mph 20.7 mph N/A   Overcast
9:15 AM 75.4 °F - 68.2 °F 78% 30.05 in 10.0 mi SE 12.7 mph 19.6 mph N/A   Overcast
9:35 AM 75.6 °F - 68.0 °F 77% 30.06 in 10.0 mi SE 11.5 mph 19.6 mph N/A   Overcast
9:55 AM 75.9 °F - 68.0 °F 76% 30.06 in 10.0 mi SE 16.1 mph 19.6 mph N/A   Overcast
10:15 AM 76.6 °F - 68.0 °F 75% 30.07 in 10.0 mi SE 9.2 mph 13.8 mph N/A   Overcast
10:35 AM 77.9 °F - 67.6 °F 71% 30.07 in 10.0 mi SE 16.1 mph 24.2 mph N/A   Overcast
10:55 AM 79.2 °F - 66.7 °F 66% 30.07 in 10.0 mi SE 17.3 mph 21.9 mph N/A   Mostly Cloudy
11:15 AM 80.2 °F 82.5 °F 66.4 °F 63% 30.06 in 10.0 mi SE 15.0 mph 24.2 mph N/A   Mostly Cloudy
11:35 AM 81.3 °F 83.5 °F 66.0 °F 60% 30.06 in 10.0 mi SSE 15.0 mph 21.9 mph N/A   Mostly Cloudy
11:55 AM 82.0 °F 83.9 °F 65.5 °F 57% 30.05 in 10.0 mi SE 17.3 mph 24.2 mph N/A   Mostly Cloudy
12:15 PM 83.3 °F 85.1 °F 65.3 °F 54% 30.04 in 10.0 mi SSE 18.4 mph 23.0 mph N/A   Mostly Cloudy
12:35 PM 84.7 °F 86.3 °F 64.9 °F 51% 30.03 in 10.0 mi SE 17.3 mph 21.9 mph N/A   Scattered Clouds
12:55 PM 85.5 °F 86.8 °F 64.4 °F 49% 30.02 in 10.0 mi SE 18.4 mph - N/A   Mostly Cloudy
1:15 PM 86.5 °F 87.8 °F 64.2 °F 47% 30.01 in 10.0 mi SE 17.3 mph 21.9 mph N/A   Scattered Clouds
1:35 PM 87.4 °F 88.2 °F 63.3 °F 44% 30.00 in 10.0 mi SSE 16.1 mph 25.3 mph N/A   Scattered Clouds
1:55 PM 87.8 °F 88.5 °F 62.8 °F 43% 29.98 in 10.0 mi SE 18.4 mph 24.2 mph N/A   Scattered Clouds
2:15 PM 88.3 °F 88.9 °F 62.4 °F 42% 29.98 in 10.0 mi SE 19.6 mph 26.5 mph N/A   Scattered Clouds
2:35 PM 89.1 °F 89.0 °F 61.2 °F 39% 29.96 in 10.0 mi SE 16.1 mph 25.3 mph N/A   Scattered Clouds
2:55 PM 89.6 °F 89.2 °F 60.3 °F 37% 29.95 in 10.0 mi SSE 13.8 mph 27.6 mph N/A   Scattered Clouds
3:15 PM 90.0 °F 89.1 °F 59.2 °F 35% 29.94 in 10.0 mi SE 18.4 mph 24.2 mph N/A   Scattered Clouds
3:35 PM 89.8 °F 88.6 °F 58.3 °F 34% 29.94 in 10.0 mi SE 16.1 mph 26.5 mph N/A   Scattered Clouds
3:55 PM 90.0 °F 88.6 °F 57.2 °F 33% 29.93 in 10.0 mi SE 18.4 mph 27.6 mph N/A   Scattered Clouds
4:15 PM 90.0 °F 88.1 °F 55.9 °F 31% 29.93 in 10.0 mi SE 19.6 mph 27.6 mph N/A   Clear
4:35 PM 89.8 °F 87.9 °F 55.2 °F 31% 29.93 in 10.0 mi SE 17.3 mph 25.3 mph N/A   Clear
4:55 PM 89.6 °F 87.5 °F 54.7 °F 30% 29.93 in 10.0 mi ESE 18.4 mph 24.2 mph N/A   Clear
5:15 PM 89.2 °F 87.3 °F 54.5 °F 31% 29.93 in 10.0 mi SE 15.0 mph 24.2 mph N/A   Clear
5:35 PM 88.7 °F 86.7 °F 54.5 °F 31% 29.93 in 10.0 mi SE 19.6 mph 25.3 mph N/A   Clear
5:55 PM 88.0 °F 86.1 °F 54.5 °F 32% 29.93 in 10.0 mi SE 15.0 mph 23.0 mph N/A   Clear
6:15 PM 86.5 °F 85.1 °F 55.6 °F 35% 29.94 in 10.0 mi SE 16.1 mph - N/A   Clear
6:35 PM 85.1 °F 84.1 °F 56.8 °F 38% 29.95 in 10.0 mi SE 11.5 mph - N/A   Clear
6:55 PM 84.4 °F 83.7 °F 57.6 °F 40% 29.95 in 10.0 mi SE 11.5 mph - N/A   Clear
7:15 PM 84.0 °F 83.5 °F 58.1 °F 41% 29.96 in 10.0 mi ESE 10.4 mph 17.3 mph N/A   Clear
7:35 PM 83.5 °F 83.4 °F 59.4 °F 44% 29.96 in 10.0 mi SE 11.5 mph - N/A   Clear
7:55 PM 82.9 °F 83.2 °F 59.9 °F 46% 29.97 in 10.0 mi SE 10.4 mph - N/A   Clear
8:15 PM 82.4 °F 83.0 °F 61.3 °F 49% 29.98 in 10.0 mi ESE 9.2 mph - N/A   Clear
8:35 PM 81.1 °F 83.1 °F 65.5 °F 59% 29.99 in 10.0 mi ESE 15.0 mph - N/A   Clear
8:55 PM 80.1 °F 82.3 °F 67.1 °F 64% 29.99 in 10.0 mi ESE 15.0 mph 20.7 mph N/A   Clear
9:15 PM 79.2 °F - 67.6 °F 68% 30.00 in 10.0 mi ESE 16.1 mph 20.7 mph N/A   Clear
9:35 PM 78.3 °F - 68.2 °F 71% 30.00 in 10.0 mi ESE 15.0 mph 19.6 mph N/A   Clear
9:55 PM 77.7 °F - 68.4 °F 73% 30.00 in 10.0 mi ESE 16.1 mph 19.6 mph N/A   Clear
10:15 PM 77.2 °F - 68.4 °F 74% 30.00 in 10.0 mi ESE 16.1 mph - N/A   Clear
10:35 PM 76.5 °F - 68.4 °F 76% 30.00 in 10.0 mi ESE 11.5 mph 19.6 mph N/A   Clear
10:55 PM 76.1 °F - 68.4 °F 77% 30.00 in 10.0 mi ESE 13.8 mph - N/A   Scattered Clouds
11:15 PM 76.1 °F - 68.7 °F 78% 30.01 in 10.0 mi ESE 13.8 mph - N/A   Mostly Cloudy
11:35 PM 76.1 °F - 69.1 °F 79% 30.02 in 10.0 mi SE 12.7 mph - N/A   Overcast
11:55 PM 76.3 °F - 69.4 °F 79% 30.01 in 10.0 mi SE 9.2 mph - N/A   Overcast